This is the latest recevied weather packets stored in our database for station/object KE8DDT-7. If no packets are shown the sender has not sent any weather packets the latest 1 day(s).
| Time | Temp. | Humidity | Pressure | Rain* | Wind** | Luminosity | Snow |
|---|---|---|---|---|---|---|---|
| 1778111259 | 10.56° C | 47% | 1004.5 hPa | 0 mm | - | 16 W/m² | - |
| 1778110959 | 11.11° C | 47% | 1004.5 hPa | 0 mm | - | 18 W/m² | - |
| 1778110659 | 11.11° C | 48% | 1004.4 hPa | 0 mm | - | 26 W/m² | - |
| 1778110359 | 11.11° C | 48% | 1004.4 hPa | 0 mm | - | 32 W/m² | - |
| 1778110059 | 11.11° C | 47% | 1004.3 hPa | 0 mm | - | 40 W/m² | - |
| 1778109759 | 11.11° C | 47% | 1004.3 hPa | 0 mm | - | 46 W/m² | - |
| 1778109459 | 11.11° C | 48% | 1004.2 hPa | 0 mm | - | 53 W/m² | - |
| 1778109159 | 11.11° C | 48% | 1004.3 hPa | 0 mm | - | 65 W/m² | - |
| 1778108859 | 11.11° C | 48% | 1004.2 hPa | 0 mm | - | 54 W/m² | - |
| 1778108559 | 11.11° C | 47% | 1004.2 hPa | 0 mm | - | 42 W/m² | - |
| 1778108259 | 11.11° C | 47% | 1004.2 hPa | 0 mm | - | 47 W/m² | - |
| 1778107959 | 11.11° C | 46% | 1004.2 hPa | 0 mm | - | 49 W/m² | - |
| 1778107659 | 11.11° C | 46% | 1004.2 hPa | 0 mm | - | 67 W/m² | - |
| 1778107359 | 11.11° C | 46% | 1004.1 hPa | 0 mm | - | 77 W/m² | - |
| 1778107059 | 11.11° C | 45% | 1004.2 hPa | 0 mm | - | 84 W/m² | - |
| 1778106759 | 11.11° C | 45% | 1004.2 hPa | 0 mm | - | 120 W/m² | - |
| 1778106459 | 11.11° C | 46% | 1004.2 hPa | 0 mm | - | 128 W/m² | - |
| 1778106159 | 11.11° C | 49% | 1004.2 hPa | 0 mm | - | 102 W/m² | - |
| 1778105859 | 11.11° C | 47% | 1004.3 hPa | 0 mm | - | 113 W/m² | - |
| 1778105559 | 11.11° C | 47% | 1004.2 hPa | 0 mm | - | 86 W/m² | - |
| 1778104959 | 11.11° C | 47% | 1004.3 hPa | 0 mm | - | 125 W/m² | - |
| 1778104659 | 11.11° C | 46% | 1004.3 hPa | 0 mm | - | 102 W/m² | - |
| 1778104359 | 11.11° C | 47% | 1004.2 hPa | 0 mm | - | 144 W/m² | - |
| 1778104059 | 11.11° C | 45% | 1004.2 hPa | 0 mm | - | 156 W/m² | - |
| 1778103759 | 11.67° C | 47% | 1004.2 hPa | 0 mm | - | 229 W/m² | - |
* Rain latest hour (hover to see other rain measurements)
** Current wind speed in m/s (hover to see current wind gust speed)